Temp
62 62 61 61 62 62 62 62 62 63 63 63 62 62 62 62 61 63 66 78 77 80 82 82 82 85 85 79 76 76 63 62 67 73 73 82 77 83 86 78 80 82 77 79 83
61 61 61 61 61 61 62 62 62 62 62 62 62 62 62 62 58 63 80 82 81 80 84 81 79 81 74 77 73 66 64 70 76 78 74 83 80 80 78 76 77 78 81 82 83
61 61 61 61 61 61 61 61 61 61 61 61 61 62 62 61 60 74 82 82 82 81 88 88 86 83 74 77 73 71 68 75 81 83 81 82 79 83 76 72 77 74 76 80 80
61 61 60 60 61 61 61 61 61 61 61 61 61 62 62 57 62 83 81 79 82 85 85 84 82 75 73 72 78 70 79 83 83 86 84 81 83 79 80 80 84 82 81 80 79
60 60 60 60 60 60 60 60 60 60 60 61 62 62 59 59 68 88 83 81 83 83 82 80 77 75 72 75 77 73 79 85 88 86 86 87 83 80 81 85 86 84 82 80 80
60 59 59 59 60 60 60 59 59 59 60 61 62 62 56 59 84 89 86 83 85 81 80 81 79 80 76 77 76 80 82 84 87 87 88 83 83 82 82 87 84 83 80 81 80
59 59 59 59 59 59 59 59 59 59 60 61 62 62 58 68 86 84 84 80 82 82 79 83 85 77 77 76 83 83 76 81 84 85 84 86 76 77 83 85 83 83 82 81 81
59 59 59 59 59 59 58 58 58 60 61 62 63 60 52 80 81 83 84 83 85 83 83 86 86 81 75 79 80 72 69 63 79 84 87 81 67 79 83 82 80 82 83 82 80
59 59 58 58 58 58 57 57 59 63 65 63 57 54 57 80 74 82 83 83 84 82 82 94 83 76 76 69 63 63 59 65 72 82 83 75 65 79 83 81 78 80 82 82 81
58 58 58 58 57 57 56 58 59 62 65 68 70 57 67 75 81 85 84 88 82 82 80 79 73 68 63 61 54 58 59 64 68 76 82 71 69 79 81 79 78 79 80 81 82
58 58 57 57 57 56 54 48 60 59 60 62 63 66 75 81 86 87 88 84 81 74 68 71 63 63 65 67 70 68 66 65 73 79 75 73 75 76 79 79 78 78 79 80 82
58 57 57 56 56 56 51 54 59 65 55 72 74 74 77 77 74 80 87 77 72 66 68 64 62 69 74 73 72 70 68 68 72 79 74 71 75 78 79 79 79 79 79 80 82
57 57 56 56 55 55 53 58 68 66 54 65 73 73 74 76 70 74 80 77 72 66 69 64 67 77 74 72 70 70 67 69 68 75 76 72 67 69 77 80 81 82 83 83 82
57 57 56 54 53 51 55 65 67 67 47 58 64 72 75 77 68 84 84 82 72 69 68 67 75 74 72 70 72 61 76 76 73 67 62 73 55 65 72 74 77 80 81 82 83
57 56 55 54 45 47 61 63 65 59 41 72 71 82 74 72 75 78 87 78 71 71 68 65 71 71 70 72 76 68 77 74 73 65 61 63 57 60 69 68 71 77 81 83 85
56 56 55 50 47 53 59 59 56 49 41 63 77 70 68 69 74 82 79 79 79 74 72 72 78 76 75 79 78 80 72 70 65 63 53 65 64 58 69 71 76 79 82 85 85
55 54 53 56 44 56 56 54 45 39 64 66 60 65 66 64 70 73 74 70 67 58 62 68 72 75 79 70 74 73 59 51 52 53 52 61 58 67 75 78 81 82 82 86 87
53 52 52 57 51 53 53 47 36 54 56 64 60 66 64 66 67 69 66 67 72 62 59 58 56 71 77 73 68 64 67 55 44 45 51 60 55 67 79 83 85 87 87 88 87
52 48 51 51 60 55 44 34 40 50 56 55 56 56 56 65 61 64 67 66 72 70 58 54 59 73 79 79 77 65 60 69 53 48 50 56 62 71 77 78 84 86 86 86 88
47 41 46 58 59 51 39 38 45 56 58 57 47 55 47 52 54 54 55 70 72 75 72 64 53 69 77 79 78 74 69 57 49 50 49 53 57 63 68 74 77 83 85 87 88
44 38 52 59 57 45 36 39 51 59 60 53 50 48 51 51 53 52 54 65 71 73 77 73 60 63 67 68 67 68 64 56 61 58 54 47 60 69 71 72 76 82 86 87 88
39 33 53 61 38 40 41 46 52 56 60 56 57 55 52 50 49 52 54 60 70 68 61 68 65 59 65 72 76 76 70 62 60 50 52 62 63 75 76 76 78 82 86 89 91
37 36 52 50 32 36 43 48 52 52 52 52 51 53 52 47 41 52 54 66 59 59 55 58 58 55 56 66 72 65 70 73 55 54 59 52 58 74 73 74 77 78 81 84 82
36 32 39 43 49 39 38 41 42 53 53 55 51 51 47 43 46 44 49 56 58 58 61 56 52 56 58 60 65 60 70 69 69 62 59 61 58 67 68 73 74 79 83 83 83
37 33 37 32 38 41 42 41 40 40 50 50 45 47 41 35 40 43 48 49 55 59 54 47 41 51 58 68 72 69 69 71 67 71 64 67 63 67 70 74 74 79 83 84 87
38 36 42 38 37 38 41 39 38 38 43 43 43 45 45 36 41 39 43 44 43 50 47 46 41 47 51 65 71 69 72 72 73 73 71 63 63 72 77 73 76 77 80 81 80
46 46 41 37 33 33 34 40 41 42 44 48 46 43 42 45 50 50 47 50 48 45 45 41 41 42 42 59 67 62 70 70 70 74 73 64 68 70 71 74 74 74 76 82 81
MSLP
1019.11 1018.58 1018.09 1017.62 1017.04 1016.48 1015.95 1015.44 1014.93 1014.44 1014.03 1013.62 1013.20 1012.79 1012.24 1011.73 1010.71 1010.23 1009.10 1006.13 1006.16 1006.42 1007.13 1007.69 1008.11 1008.18 1008.70 1008.99 1009.70 1010.20 1010.01 1008.52 1007.10 1005.96 1005.59 1006.14 1006.40 1007.67 1007.34 1007.99 1008.88 1008.92 1009.68 1010.77 1011.77
1019.14 1018.63 1018.11 1017.54 1017.02 1016.47 1015.88 1015.34 1014.75 1014.24 1013.80 1013.27 1012.87 1012.48 1011.98 1011.57 1010.81 1008.54 1004.26 1004.15 1004.64 1005.57 1006.51 1006.91 1007.14 1007.52 1008.11 1008.14 1008.84 1009.25 1008.42 1006.80 1005.22 1004.79 1004.82 1004.68 1005.31 1006.48 1007.47 1008.34 1008.79 1009.16 1010.23 1011.33 1011.80
1019.08 1018.51 1017.91 1017.34 1016.71 1016.16 1015.63 1015.07 1014.57 1014.01 1013.51 1013.12 1012.60 1012.22 1011.70 1011.43 1010.26 1005.35 1002.85 1003.01 1003.83 1004.87 1005.48 1005.95 1006.11 1006.67 1007.19 1007.14 1007.72 1007.37 1006.51 1004.93 1003.99 1003.69 1004.54 1004.50 1005.22 1005.66 1006.69 1007.83 1007.46 1008.55 1009.86 1010.91 1011.67
1018.99 1018.37 1017.72 1017.06 1016.44 1015.82 1015.20 1014.67 1014.19 1013.79 1013.25 1012.78 1012.41 1011.94 1011.50 1011.29 1008.27 1003.30 1002.61 1002.36 1003.21 1004.45 1005.34 1005.70 1005.86 1006.29 1006.47 1006.56 1006.10 1006.31 1004.90 1003.65 1002.78 1002.49 1003.40 1004.64 1004.50 1005.40 1005.23 1005.89 1006.97 1007.73 1008.60 1009.92 1011.11
1018.80 1018.15 1017.40 1016.65 1015.96 1015.31 1014.69 1014.13 1013.57 1013.11 1012.90 1012.39 1012.12 1011.84 1011.24 1010.20 1005.83 1002.79 1002.84 1002.99 1003.66 1004.33 1004.80 1005.32 1005.45 1005.60 1005.69 1005.14 1005.25 1005.37 1004.25 1002.75 1002.04 1001.76 1002.69 1003.51 1003.54 1004.12 1005.15 1005.69 1007.08 1007.94 1008.99 1009.75 1010.33
1018.45 1017.83 1017.14 1016.35 1015.56 1014.77 1014.06 1013.43 1012.87 1012.28 1011.94 1011.91 1011.81 1011.75 1011.32 1008.51 1003.27 1002.35 1002.66 1003.21 1003.48 1003.98 1004.25 1004.65 1004.67 1004.68 1004.99 1004.41 1004.47 1003.99 1003.76 1002.68 1001.77 1001.81 1001.77 1002.78 1003.75 1003.80 1004.87 1005.42 1006.74 1007.58 1008.47 1009.20 1009.91
1018.46 1017.69 1016.87 1016.12 1015.36 1014.52 1013.64 1012.73 1012.15 1011.48 1010.94 1010.93 1011.24 1011.24 1010.19 1004.42 1002.52 1002.13 1002.44 1002.76 1003.06 1003.32 1003.76 1003.73 1004.00 1004.46 1004.21 1004.23 1003.45 1003.38 1003.48 1002.72 1002.01 1001.27 1001.71 1002.41 1003.81 1003.94 1004.48 1005.37 1006.35 1007.22 1008.15 1008.80 1009.45
1018.46 1017.74 1016.88 1015.90 1014.95 1014.09 1013.09 1012.02 1010.99 1010.25 1009.60 1009.75 1010.43 1010.47 1007.75 1002.87 1002.22 1002.43 1002.46 1002.54 1002.70 1002.87 1002.93 1002.77 1003.31 1003.90 1004.17 1003.74 1003.46 1003.45 1003.36 1002.90 1001.29 1001.05 1002.02 1002.26 1003.76 1004.12 1004.36 1005.31 1006.44 1006.99 1007.54 1008.31 1008.93
1018.30 1017.47 1016.60 1015.54 1014.58 1013.68 1012.39 1011.01 1010.06 1009.23 1008.81 1009.24 1009.96 1009.68 1005.48 1002.04 1002.02 1000.86 1001.47 1001.66 1001.96 1002.33 1002.51 1002.36 1003.10 1003.62 1003.84 1004.06 1004.24 1003.90 1003.56 1002.94 1001.50 1001.00 1001.27 1002.14 1003.46 1003.95 1004.46 1004.97 1006.04 1006.56 1007.03 1007.43 1008.20
1018.13 1017.30 1016.33 1015.10 1014.07 1013.17 1011.77 1009.98 1008.93 1009.20 1009.10 1009.18 1008.78 1008.72 1003.94 1001.33 1000.27 1000.01 1000.29 1000.96 1001.67 1001.89 1002.64 1002.67 1003.16 1003.51 1003.89 1004.30 1004.19 1003.98 1003.71 1002.73 1001.82 1001.00 1001.04 1002.08 1002.53 1003.54 1004.31 1004.77 1005.52 1006.10 1006.45 1006.92 1007.33
1018.14 1017.27 1016.22 1014.97 1013.73 1012.95 1011.92 1010.45 1009.19 1008.87 1008.46 1007.55 1006.42 1004.71 1002.10 1000.75 999.78 999.33 999.52 1000.76 1001.40 1001.68 1002.44 1002.60 1003.25 1003.12 1003.47 1003.73 1003.58 1003.63 1003.39 1002.83 1001.22 1000.91 1001.90 1001.34 1002.19 1003.07 1003.81 1004.74 1005.16 1005.60 1006.04 1006.48 1006.40
1017.91 1017.02 1016.08 1014.81 1013.33 1012.45 1012.27 1011.57 1010.54 1010.38 1007.63 1005.15 1003.66 1002.69 1001.37 1001.23 1001.07 999.42 999.11 1000.34 1001.05 1001.48 1002.07 1002.72 1002.33 1002.71 1003.01 1003.15 1003.21 1003.12 1002.88 1002.08 1001.50 1000.98 1001.46 1002.11 1001.80 1002.24 1003.06 1003.23 1003.40 1004.37 1005.24 1005.66 1006.02
1017.69 1016.87 1015.90 1014.45 1012.64 1011.97 1012.13 1010.52 1009.71 1009.32 1007.80 1003.15 1001.17 1000.09 999.66 1000.39 1000.41 999.28 999.22 999.33 1000.18 1001.36 1001.57 1001.82 1001.57 1001.95 1002.26 1002.42 1002.62 1002.30 1002.19 1001.54 1001.95 1001.36 1001.23 1001.94 1002.63 1003.01 1003.31 1003.41 1003.63 1003.76 1003.90 1004.53 1004.86
1017.56 1016.73 1016.10 1014.98 1012.82 1013.03 1011.11 1009.76 1009.42 1009.01 1007.43 1002.30 999.83 997.62 997.72 998.28 998.68 997.73 997.98 998.47 999.37 1000.15 1001.08 1001.18 1001.03 1001.11 1001.26 1001.38 1001.85 1001.68 1001.12 1001.56 1002.04 1002.23 1001.68 1001.47 1002.71 1003.06 1003.01 1003.08 1003.17 1003.35 1003.51 1003.62 1004.14
1017.24 1016.63 1016.05 1016.01 1015.40 1014.01 1010.87 1010.01 1009.37 1008.64 1006.22 999.77 997.50 996.03 996.62 996.97 996.07 995.80 996.83 997.76 998.17 999.14 1000.39 999.70 999.68 999.92 1000.07 1000.07 1000.58 1000.25 1001.21 1001.51 1002.10 1002.47 1002.57 1002.19 1002.61 1001.96 1001.95 1002.46 1002.47 1002.25 1002.20 1002.25 1002.69
1017.39 1016.38 1015.92 1015.20 1015.15 1012.44 1011.32 1010.44 1009.59 1009.16 1004.63 999.42 996.69 996.51 997.19 996.85 995.91 994.93 996.07 997.22 997.62 998.62 998.88 998.96 998.90 999.00 998.86 999.39 999.84 1000.35 1001.05 1001.38 1001.92 1002.67 1002.76 1002.16 1002.14 1001.33 1000.33 1000.19 1000.52 1000.80 1000.75 1000.78 1001.52
1017.31 1016.52 1015.39 1015.05 1013.26 1011.78 1011.56 1010.83 1010.23 1007.71 1002.71 999.74 999.20 998.76 997.60 996.87 996.50 995.90 996.13 996.83 997.01 998.02 998.12 998.58 998.31 998.06 998.17 998.90 999.14 999.87 1001.02 1002.06 1002.28 1002.36 1001.53 1001.51 1001.40 999.61 998.46 998.32 998.19 998.84 999.02 999.41 1000.10
1016.86 1015.85 1013.69 1012.54 1012.10 1012.44 1012.24 1011.68 1009.60 1005.24 1003.12 1001.26 1001.18 999.47 998.66 998.23 997.17 996.40 996.65 996.60 996.82 997.33 997.86 998.31 997.89 997.27 996.74 997.27 998.07 998.92 999.95 1000.67 1001.86 1001.92 1001.76 1001.06 999.95 997.84 997.23 996.62 996.43 996.66 997.15 998.27 999.00
1016.57 1015.12 1013.16 1010.85 1010.59 1011.96 1012.62 1011.18 1007.91 1005.77 1004.89 1003.65 1002.15 1001.09 1000.26 999.13 999.52 998.27 996.76 996.20 995.88 996.51 997.64 998.00 997.19 996.28 996.13 996.33 996.94 997.78 998.52 999.77 1001.18 1001.45 1001.23 999.96 998.68 997.09 996.39 996.13 995.72 995.82 996.60 997.12 997.62
1017.00 1015.99 1012.29 1010.70 1010.79 1011.76 1012.20 1010.05 1007.82 1005.94 1005.40 1004.93 1004.43 1003.05 1003.04 1002.67 1002.29 1000.97 998.90 996.32 995.98 996.17 996.74 996.69 996.75 995.66 995.38 995.54 995.72 996.29 997.63 999.25 999.96 1000.35 1000.45 999.31 997.87 996.15 995.89 995.77 995.49 995.59 995.61 995.65 996.24
1017.04 1016.12 1010.79 1010.52 1010.20 1011.25 1010.97 1009.80 1007.98 1006.13 1006.37 1006.01 1005.64 1005.39 1004.49 1004.37 1003.66 1003.12 1000.78 998.33 997.12 996.59 996.38 996.62 997.03 995.86 995.30 994.64 994.96 995.79 996.39 997.33 998.21 999.05 999.07 998.71 995.60 995.18 995.17 995.06 994.85 994.47 994.25 994.33 994.62
1017.44 1016.32 1011.33 1011.00 1011.44 1010.87 1010.43 1009.44 1008.54 1007.33 1006.29 1006.43 1005.95 1005.72 1005.68 1005.60 1004.13 1003.51 1001.99 1000.94 999.10 999.48 998.79 997.44 996.42 995.27 994.18 993.49 993.53 994.19 994.88 996.16 997.26 998.08 997.99 997.19 992.81 993.88 994.18 994.30 994.14 993.92 993.03 992.97 994.01
1017.91 1015.73 1012.15 1011.85 1012.48 1012.21 1011.15 1009.92 1008.81 1007.73 1007.30 1006.80 1006.56 1006.37 1006.68 1006.63 1006.07 1004.09 1003.08 1001.89 1002.60 1001.66 1001.06 999.55 996.37 996.01 994.20 993.62 993.14 993.51 993.75 994.21 995.22 996.15 996.06 995.93 993.77 993.35 993.93 993.96 993.48 993.64 993.62 993.61 994.06
1018.33 1016.95 1014.19 1013.24 1013.66 1013.58 1012.65 1011.37 1010.16 1009.27 1008.23 1007.67 1007.20 1007.00 1007.31 1007.34 1006.90 1005.82 1004.74 1003.99 1004.10 1003.61 1002.53 1000.62 998.45 996.12 993.64 992.46 992.57 992.48 992.48 992.96 993.61 994.25 994.85 992.89 994.13 993.61 993.76 993.89 993.74 993.11 992.92 992.73 993.10
1018.28 1017.47 1016.09 1015.42 1014.29 1014.49 1013.79 1013.03 1011.60 1010.37 1009.06 1008.79 1008.36 1008.33 1008.57 1008.38 1007.52 1006.47 1006.10 1005.57 1004.85 1004.25 1003.73 1002.91 1000.42 997.49 994.88 993.11 991.39 990.72 990.78 991.36 991.47 991.82 992.00 992.27 993.27 993.54 993.35 993.29 993.11 992.82 992.24 992.70 992.45
1018.03 1017.68 1016.71 1016.13 1015.31 1014.81 1013.66 1012.91 1012.12 1011.99 1011.03 1009.74 1009.21 1009.01 1008.89 1008.92 1008.47 1007.53 1007.16 1006.82 1006.26 1005.46 1005.21 1004.10 1002.03 999.00 995.42 992.92 991.22 990.00 989.91 989.41 989.53 990.34 990.82 991.35 991.89 991.90 991.85 992.02 992.27 992.40 992.45 992.04 992.24
1017.37 1017.14 1016.78 1016.05 1015.42 1015.02 1014.03 1013.32 1013.10 1012.65 1011.16 1010.10 1009.44 1009.20 1008.81 1008.39 1007.88 1007.25 1006.97 1006.33 1006.06 1006.21 1005.60 1005.04 1002.82 1000.51 996.55 993.31 991.06 989.99 986.79 988.01 988.78 989.23 989.59 990.26 991.02 991.21 991.53 991.56 991.62 991.44 991.63 991.70 991.22
Wind_Speed
21 21 21 21 22 22 22 22 21 21 21 21 20 19 18 17 20 3 9 15 11 16 13 12 8 9 11 9 5 4 3 4 4 7 6 21 16 13 8 22 11 6 12 24 23
21 22 22 23 22 22 22 22 22 22 22 22 20 19 18 16 5 10 20 18 20 17 8 14 11 12 6 10 5 6 4 6 7 5 1 21 24 17 12 20 7 15 15 21 21
22 23 24 24 24 23 23 23 23 23 23 22 21 18 17 12 5 11 3 19 19 16 9 11 7 8 6 5 8 7 7 6 7 10 6 22 24 20 25 17 21 24 24 24 23
23 24 24 25 25 25 24 24 24 22 23 22 19 17 16 2 7 3 7 10 19 13 7 8 6 6 6 9 7 4 9 11 5 6 10 20 21 20 23 14 24 25 29 27 22
24 24 24 25 26 26 26 25 24 23 21 21 17 14 5 2 16 8 5 8 10 10 11 9 8 6 7 6 9 5 6 14 13 10 12 12 18 20 14 22 22 23 26 25 23
24 24 24 25 26 27 27 26 25 25 23 18 13 7 3 9 7 11 9 6 6 7 7 8 7 8 5 8 9 8 14 17 15 16 9 12 7 7 16 23 24 26 27 25 23
24 25 27 28 28 28 28 29 27 27 25 18 10 5 5 22 5 0 9 8 7 7 6 9 13 3 3 7 4 6 6 14 15 11 4 15 5 15 24 26 26 24 24 23 22
24 25 26 28 29 30 30 30 31 31 23 12 9 5 12 7 14 17 13 9 8 8 8 9 10 11 5 6 7 3 3 4 14 18 10 11 10 21 26 27 23 21 20 21 22
24 26 27 28 29 30 32 33 33 17 1 12 7 4 14 8 5 12 9 9 12 8 7 12 5 8 5 4 5 3 5 7 11 9 16 6 4 24 23 24 22 21 20 16 15
24 26 28 31 31 30 33 32 18 5 6 7 4 2 7 7 5 5 11 13 6 9 8 5 4 6 1 5 8 5 3 6 6 2 17 5 8 22 23 24 24 22 20 19 17
24 25 27 30 32 30 21 9 5 3 3 8 7 8 13 5 5 6 9 9 6 5 10 6 5 13 11 7 6 4 5 8 11 3 4 17 19 20 25 22 22 21 21 21 22
24 25 26 31 33 32 3 4 1 7 15 15 24 26 28 1 8 8 10 10 7 9 6 3 13 8 8 7 10 9 13 18 9 10 8 10 21 20 25 26 28 25 22 23 20
25 25 27 31 38 5 7 6 7 15 6 9 15 17 14 19 16 20 9 8 8 8 12 13 9 13 10 11 11 15 17 15 9 7 1 8 4 3 9 13 17 21 24 22 24
24 25 25 30 7 9 7 9 15 10 5 10 7 10 10 10 11 19 11 16 6 17 8 10 12 13 18 14 14 13 15 14 8 4 7 7 4 6 10 9 14 20 21 22 23
26 25 24 16 6 5 9 15 17 3 6 4 6 2 8 13 7 13 16 5 14 8 9 10 19 20 17 18 18 14 12 10 10 6 4 4 5 8 9 11 11 18 24 23 24
26 29 26 5 2 13 12 15 2 5 11 8 5 6 8 5 3 3 11 6 5 12 10 18 8 15 16 13 17 13 7 8 3 5 8 14 13 7 11 13 17 17 20 26 24
22 24 25 8 7 5 8 5 5 7 6 3 6 9 6 8 7 4 21 17 17 11 20 9 18 6 11 10 11 12 7 5 7 9 11 11 6 13 18 19 24 23 22 25 25
23 26 13 11 6 5 5 4 6 5 9 8 13 13 4 4 7 5 6 19 18 4 6 12 10 19 11 17 16 10 16 10 10 5 5 6 10 14 16 17 26 27 22 21 24
21 6 8 4 8 5 4 5 8 5 6 15 11 5 7 6 14 8 16 14 21 16 11 8 14 4 15 13 17 10 10 12 6 3 2 5 7 6 10 12 24 25 22 23 27
7 5 8 5 2 4 3 5 6 3 13 10 4 4 11 14 13 18 7 8 13 16 13 8 4 12 18 17 17 18 8 4 2 16 18 5 7 9 8 14 14 22 25 26 23
2 4 6 5 3 4 7 8 5 19 10 7 14 15 16 13 5 8 12 15 1 7 20 19 9 10 4 15 17 11 10 3 6 8 12 7 17 9 10 10 14 23 26 26 25
3 4 5 13 5 2 7 7 10 14 19 13 11 15 9 11 10 8 12 11 20 18 12 14 15 17 25 13 12 20 15 12 10 7 6 16 26 3 10 9 11 19 25 24 16
3 6 7 4 5 7 10 10 8 7 5 6 5 4 6 4 6 7 11 10 22 16 9 10 7 10 9 15 15 8 13 19 6 5 19 11 6 7 5 6 9 9 8 10 8
3 6 6 4 4 9 11 7 11 12 10 7 9 2 6 2 4 7 11 11 21 16 20 10 7 12 19 12 7 8 16 12 19 15 10 22 5 6 1 7 9 14 15 17 13
1 5 2 6 6 11 8 8 12 10 7 5 4 8 4 4 5 4 7 15 12 7 14 7 7 4 13 15 21 13 13 21 23 24 22 14 13 10 9 9 9 14 13 14 19
2 3 4 6 7 8 5 6 11 9 7 7 6 10 5 4 6 13 16 8 4 8 10 6 7 8 8 10 23 23 19 19 23 23 19 6 8 11 13 9 7 11 13 14 10
2 3 3 4 4 4 4 9 15 7 11 5 9 8 9 12 12 12 11 13 9 5 13 4 4 9 8 6 18 20 32 16 11 16 17 15 10 10 8 8 10 10 8 11 9
Wind_Direction
355 351 347 344 341 338 336 334 332 330 329 327 327 326 322 320 314 163 236 219 188 182 145 166 204 174 173 188 136 133 261 275 274 88 157 153 134 162 128 136 159 207 142 166 163
351 349 346 343 340 336 333 331 330 328 326 326 326 325 322 326 298 255 238 209 199 154 171 172 181 178 191 179 172 161 185 236 212 152 162 151 150 148 139 151 152 114 130 157 162
347 345 342 340 337 335 332 329 327 325 324 323 322 322 319 327 309 250 331 224 198 159 181 206 208 164 208 158 185 198 220 214 251 226 165 144 145 150 150 175 160 151 154 164 164
345 341 338 336 334 331 328 326 323 321 319 319 319 319 314 275 274 247 12 349 181 163 179 209 226 182 198 203 189 194 261 240 217 133 142 166 156 161 165 175 162 158 160 163 169
341 338 334 331 329 327 324 320 317 315 314 314 315 318 330 255 247 281 57 67 125 152 188 199 210 164 207 199 180 218 239 267 273 279 142 185 165 167 169 146 157 153 159 169 173
337 334 332 329 326 324 322 318 314 309 307 304 303 310 228 241 249 229 195 138 149 154 189 175 211 205 283 235 187 202 235 253 257 250 150 151 197 108 150 149 156 159 169 173 171
334 332 331 329 326 323 320 315 310 304 299 293 267 216 249 234 224 303 166 199 168 176 190 202 208 211 177 292 268 203 223 255 262 255 225 118 146 154 152 153 161 165 168 177 176
333 331 329 326 324 322 318 313 309 305 295 259 200 189 246 237 243 260 252 244 211 221 202 207 189 222 200 279 328 353 140 219 249 250 176 128 184 153 159 158 166 170 174 166 180
330 329 327 323 322 322 317 312 307 305 66 147 136 187 268 289 203 231 159 201 205 223 248 222 143 199 263 216 358 7 234 242 295 180 169 128 181 165 166 161 167 174 181 179 179
329 328 326 323 323 324 319 311 291 267 140 174 252 332 265 253 223 201 172 199 172 208 234 216 176 204 346 127 219 213 246 269 242 133 174 160 152 161 171 166 173 178 181 185 188
329 326 325 323 321 321 331 346 11 2 198 251 220 257 292 279 295 216 156 171 167 152 190 215 176 224 222 205 225 227 245 253 270 335 86 162 165 172 175 175 178 182 185 190 188
330 328 327 322 320 319 332 350 206 306 295 247 244 246 245 56 313 298 135 161 162 200 149 239 229 209 199 213 224 231 249 261 308 279 163 201 178 173 175 184 182 183 187 192 194
330 329 330 327 319 347 296 240 341 339 266 268 227 236 231 195 223 253 182 171 176 187 199 207 222 198 200 224 224 232 231 250 234 313 264 128 39 168 196 191 192 192 188 191 190
329 329 333 338 4 333 282 308 337 318 317 275 231 251 171 150 219 219 200 178 178 198 189 231 228 205 209 220 217 238 233 242 249 278 243 161 223 214 224 214 192 196 194 194 196
329 329 329 330 275 306 280 327 321 57 310 222 229 115 154 168 160 208 192 202 178 169 162 219 193 215 211 213 216 241 238 234 226 231 214 266 122 247 159 222 211 196 197 196 196
324 323 330 342 257 245 298 300 20 48 247 286 189 151 135 244 266 147 159 202 164 194 214 219 234 201 215 219 219 226 249 253 208 196 226 226 211 242 209 209 220 203 202 198 197
316 314 312 285 238 305 344 356 71 210 309 275 353 346 304 167 236 158 184 191 198 170 210 221 231 234 194 201 221 194 166 256 250 228 231 207 227 226 208 210 203 205 203 200 197
316 314 265 247 239 255 353 60 212 221 255 42 345 317 223 65 246 213 161 208 214 160 175 202 245 212 212 206 212 195 199 199 212 211 250 213 223 233 227 212 198 207 203 197 198
320 301 277 277 234 135 90 189 209 208 24 348 345 345 1 15 5 342 208 204 212 187 184 178 236 265 208 217 190 220 203 200 191 208 273 220 251 296 244 207 208 206 193 198 199
321 307 262 261 22 117 107 253 243 3 3 352 307 294 6 351 330 3 307 262 217 201 194 219 281 218 235 215 242 207 179 182 248 219 240 241 221 233 203 221 198 202 199 199 196
353 332 292 21 348 132 213 215 278 296 340 356 318 293 294 308 247 293 268 319 333 262 211 210 191 240 210 223 217 207 207 231 166 190 222 240 250 190 233 218 205 199 197 202 191
350 303 313 335 17 282 228 194 257 273 286 281 273 282 295 348 298 270 247 221 326 324 309 278 214 228 229 220 204 222 212 182 210 235 236 225 243 132 206 229 205 212 204 205 188
309 261 299 96 9 358 348 346 4 354 347 339 301 40 25 19 333 331 325 334 17 10 359 324 233 231 257 252 242 197 222 216 132 128 220 208 245 186 194 207 216 183 168 173 179
340 315 316 12 44 8 357 349 337 327 291 350 316 45 14 306 211 300 318 346 343 338 342 344 243 244 238 219 181 197 221 209 209 213 213 232 199 282 148 206 221 201 205 186 184
232 261 300 323 343 335 337 275 332 340 357 346 348 3 93 313 306 289 332 327 336 346 349 23 282 282 290 260 207 198 193 210 213 218 209 226 206 231 233 205 222 231 207 202 194
266 306 319 277 292 318 315 300 350 345 302 321 351 319 310 202 250 299 316 320 229 321 348 332 282 331 274 254 229 217 222 227 215 215 228 169 208 186 231 193 222 206 221 195 210
247 260 270 298 280 309 256 341 312 325 284 291 308 304 293 289 281 277 278 274 228 253 290 266 309 354 278 311 217 233 215 203 206 215 210 203 196 187 191 197 200 220 213 231 210